DW1549 Weather Reports


Display with metric or nautical units.
time (UTC)temp
F
wind
direction
speed
MPH
gust
MPH
rain 1hr
in
rain 24hr
in
rain mn
in
humidity
%
barometer
mb
20220625050515 56 22 0.0 0.0 0.00 0.02 0.00 78 1011.7
20220625043515 55 22 0.0 0.0 0.00 0.02 0.00 79 1011.9
20220625041515 54 22 0.0 0.0 0.00 0.04 0.00 79 1011.9
20220625040515 53 22 0.0 0.0 0.00 0.04 0.00 79 1011.9
20220625035515 54 22 0.0 0.0 0.00 0.04 0.00 79 1011.9
20220625033515 54 22 0.0 0.0 0.00 0.06 0.00 79 1012.1
20220625031515 54 22 0.0 0.0 0.00 0.06 0.00 80 1012.3
20220625025516 52 22 0.0 0.0 0.00 0.06 0.00 80 1012.3
20220625014532 52 22 0.0 5.0 0.00 0.08 0.00 81 1012.1
20220625012515 52 22 0.0 7.0 0.00 0.08 0.00 81 1012.3
20220625010514 51 22 0.0 0.0 0.00 0.09 0.00 81 1012.3
20220625005516 52 22 0.0 0.0 0.00 0.10 0.00 80 1012.6
20220625003514 52 22 0.0 0.0 0.00 0.10 0.00 80 1012.6
20220625002514 53 22 0.0 0.0 0.00 0.10 0.00 80 1012.7
20220625001514 53 22 0.0 0.0 0.00 0.11 0.00 80 1012.6
20220624235514 53 22 0.0 0.0 0.00 0.11 0.00 80 1012.8
20220624232529 53 22 0.0 2.0 0.00 0.11 0.00 81 1012.8
20220624230528 53 22 0.0 0.0 0.00 0.11 0.00 80 1012.8
20220624224529 53 22 0.0 0.0 0.00 0.11 0.00 81 1012.7
20220624221529 53 22 0.0 0.0 0.00 0.11 0.00 81 1012.9
20220624220528 52 22 0.0 0.0 0.00 0.11 0.11 80 1012.8
20220624215529 52 22 0.0 0.0 0.00 0.11 0.11 80 1012.5
20220624213514 53 22 0.0 0.0 0.00 0.12 0.11 80 1012.5
20220624211514 54 22 0.0 0.0 0.00 0.12 0.11 79 1012.5
20220624210513 54 22 0.0 0.0 0.00 0.12 0.11 79 1012.3
20220624203516 56 22 0.0 0.0 0.00 0.12 0.11 78 1012.4
20220624201516 57 22 0.0 0.0 0.00 0.12 0.11 77 1012.4
20220624200517 57 22 0.0 3.0 0.00 0.12 0.11 76 1012.4
20220624195517 57 22 1.0 12.0 0.00 0.13 0.11 76 1012.4
20220624193517 57 22 2.0 6.0 0.00 0.13 0.11 76 1012.4
20220624192516 57 22 3.0 8.0 0.00 0.13 0.11 76 1012.4
20220624190517 58 20 0.0 2.0 0.00 0.13 0.11 76 1012.3
20220624184516 58 20 1.0 5.0 0.00 0.13 0.11 75 1012.1
20220624182528 59 16 1.0 10.0 0.00 0.13 0.11 74 1012.1
20220624181528 59 16 2.0 6.0 0.00 0.13 0.11 74 1012.1
20220624180528 59 16 1.0 6.0 0.00 0.13 0.11 74 1012.0
20220624175529 59 16 1.0 7.0 0.00 0.13 0.11 73 1012.0
20220624171513 61 33 2.0 10.0 0.00 0.13 0.11 72 1011.9
20220624163516 62 51 2.0 9.0 0.00 0.13 0.11 71 1011.6
20220624160516 61 137 1.0 5.0 0.00 0.13 0.11 74 1011.7
20220624155517 60 162 1.0 5.0 0.00 0.13 0.11 75 1011.7
20220624154516 59 164 0.0 0.0 0.00 0.13 0.11 74 1011.8
20220624153516 60 164 0.0 0.0 0.00 0.13 0.11 75 1011.8
20220624151516 59 164 0.0 0.0 0.00 0.13 0.11 76 1011.8
20220624150518 59 164 0.0 0.0 0.00 0.13 0.11 75 1011.8
20220624142530 59 164 0.0 0.0 0.00 0.13 0.11 76 1011.6
20220624134531 57 164 0.0 0.0 0.00 0.13 0.11 75 1011.5
20220624133515 58 164 0.0 0.0 0.00 0.13 0.11 76 1011.5
20220624132515 58 164 0.0 0.0 0.00 0.13 0.11 76 1011.5
20220624130515 57 164 0.0 0.0 0.00 0.13 0.11 76 1011.3
20220624124516 57 164 0.0 0.0 0.00 0.13 0.11 76 1011.1
20220624122518 57 164 1.0 5.0 0.00 0.13 0.11 76 1011.3
20220624121518 57 164 0.0 0.0 0.00 0.13 0.11 76 1011.4
20220624114519 56 170 2.0 7.0 0.00 0.13 0.11 78 1011.2
20220624113518 56 227 1.0 3.0 0.00 0.13 0.11 78 1011.3
20220624112518 55 241 0.0 0.0 0.00 0.13 0.11 79 1011.2
20220624105519 54 241 0.0 0.0 0.00 0.13 0.11 80 1011.1
20220624104519 54 241 0.0 0.0 0.00 0.13 0.11 80 1011.1
20220624103531 53 241 0.0 0.0 0.00 0.13 0.11 80 1011.1
20220624102530 53 241 0.0 0.0 0.00 0.13 0.11 80 1011.1
20220624093514 52 241 0.0 0.0 0.00 0.13 0.11 80 1010.8
20220624091514 53 241 0.0 0.0 0.00 0.13 0.11 80 1010.8
20220624084514 53 241 0.0 0.0 0.00 0.13 0.11 81 1010.6
20220624082517 52 241 0.0 0.0 0.00 0.13 0.11 82 1010.4
20220624074519 52 241 0.0 0.0 0.00 0.13 0.11 82 1010.2
20220624073518 52 241 0.0 0.0 0.00 0.13 0.11 82 1010.2
20220624072517 51 241 0.0 0.0 0.00 0.13 0.11 82 1010.2
20220624071517 51 241 0.0 0.0 0.00 0.13 0.11 83 1010.2
20220624070517 51 241 0.0 0.0 0.00 0.13 0.11 83 1010.2
20220624063518 50 241 0.0 0.0 0.00 0.13 0.11 83 1010.0
20220624062519 50 241 0.0 0.0 0.01 0.13 0.11 83 1010.0
20220624061518 49 241 0.0 0.0 0.01 0.13 0.11 83 1009.8
20220624054519 49 241 0.0 0.0 0.02 0.13 0.11 83 1009.6